• In Hungary
  • List of Countries
  • For 7 days
  • Water Temperature
  • Satellite Maps
  • Weather Map
  • News
  • Weather Widgets
  • user-avatar
    Login

    Hourly Weather Bolshie Yasnovicy

    Today, 24 October, Wednesday

    Time Temperature Precipitation Wind Pressure Humidity
    00:00 +1°C° 0.2 mm 4 mps 718 mmHg 82%
    01:00 +1°C° 0.2 mm 4 mps 717 mmHg 82%
    02:00 +1°C° 0.2 mm 4 mps 716 mmHg 83%
    03:00 +1°C° 0.3 mm 4 mps 716 mmHg 83%
    04:00 +1°C° 0.3 mm 4 mps 715 mmHg 84%
    05:00 +1°C° 0.3 mm 4 mps 714 mmHg 85%
    06:00 +2°C° 0.3 mm 3 mps 714 mmHg 85%
    07:00 +2°C° 0.3 mm 3 mps 714 mmHg 85%
    08:00 +2°C° 0.3 mm 3 mps 714 mmHg 86%
    09:00 +3°C° 0.3 mm 3 mps 714 mmHg 85%
    10:00 +3°C° 0.3 mm 3 mps 714 mmHg 84%
    11:00 +3°C° 0.3 mm 3 mps 714 mmHg 84%
    12:00 +5°C° 0.2 mm 2 mps 714 mmHg 84%
    13:00 +5°C° 0.2 mm 2 mps 714 mmHg 84%
    14:00 +5°C° 0.2 mm 2 mps 714 mmHg 84%
    15:00 +5°C° 0.2 mm 2 mps 714 mmHg 86%
    16:00 +4°C° 0.2 mm 2 mps 715 mmHg 88%
    17:00 +4°C° 0.2 mm 2 mps 715 mmHg 90%
    18:00 +4°C° 0.1 mm 2 mps 715 mmHg 90%
    19:00 +4°C° 0.1 mm 2 mps 716 mmHg 91%
    20:00 +4°C° 0.1 mm 2 mps 716 mmHg 91%
    21:00 +2°C° 0.1 mm 3 mps 716 mmHg 91%
    22:00 +2°C° 0.1 mm 3 mps 716 mmHg 91%
    23:00 +2°C° 0.1 mm 3 mps 717 mmHg 90%

    Tomorrow, 25 October, Thursday

    Time Temperature Precipitation Wind Pressure Humidity
    00:00 +2°C° 0.1 mm 3 mps 717 mmHg 89%
    01:00 +2°C° 0.1 mm 3 mps 717 mmHg 88%
    02:00 +1°C° 0.1 mm 4 mps 718 mmHg 87%
    03:00 +1°C° 0.1 mm 4 mps 718 mmHg 87%
    04:00 +1°C° 0.1 mm 4 mps 718 mmHg 87%
    05:00 0°C° 0.1 mm 4 mps 718 mmHg 87%
    06:00 0°C° 0 mm 4 mps 719 mmHg 86%
    07:00 0°C° 0 mm 4 mps 719 mmHg 85%
    08:00 0°C° 0 mm 4 mps 719 mmHg 84%
    09:00 0°C° 0 mm 4 mps 719 mmHg 82%
    10:00 0°C° 0 mm 4 mps 720 mmHg 79%
    11:00 +1°C° 0 mm 4 mps 720 mmHg 77%
    12:00 +1°C° 0 mm 4 mps 720 mmHg 76%
    13:00 +1°C° 0 mm 4 mps 720 mmHg 75%
    14:00 +1°C° 0 mm 4 mps 720 mmHg 74%
    15:00 +2°C° 0 mm 3 mps 720 mmHg 76%
    16:00 +2°C° 0 mm 3 mps 720 mmHg 78%
    17:00 +2°C° 0 mm 2 mps 720 mmHg 80%
    18:00 +2°C° 0 mm 2 mps 720 mmHg 82%
    19:00 +2°C° 0 mm 2 mps 720 mmHg 84%
    20:00 +2°C° 0 mm 2 mps 720 mmHg 86%
    21:00 +1°C° 0 mm 2 mps 720 mmHg 89%
    22:00 +1°C° 0 mm 2 mps 720 mmHg 91%
    23:00 -1°C° 0 mm 2 mps 720 mmHg 94%

    Day after tomorrow, 26 October, Friday

    Time Temperature Precipitation Wind Pressure Humidity
    00:00 -1°C° 0 mm 2 mps 720 mmHg 95%
    01:00 -1°C° 0 mm 2 mps 720 mmHg 95%
    02:00 -2°C° 0 mm 2 mps 720 mmHg 96%
    03:00 -1°C° 0.1 mm 2 mps 721 mmHg 95%
    04:00 -1°C° 0.1 mm 2 mps 721 mmHg 94%
    05:00 -1°C° 0.1 mm 2 mps 721 mmHg 93%
    06:00 +1°C° 0.4 mm 2 mps 721 mmHg 92%
    07:00 0°C° 0.4 mm 3 mps 721 mmHg 91%
    08:00 0°C° 0.4 mm 3 mps 721 mmHg 90%
    09:00 +1°C° 0.1 mm 3 mps 722 mmHg 88%
    10:00 +1°C° 0.1 mm 3 mps 722 mmHg 85%
    11:00 +2°C° 0.1 mm 3 mps 722 mmHg 83%
    12:00 +1°C° 0 mm 4 mps 723 mmHg 81%
    13:00 +1°C° 0 mm 4 mps 723 mmHg 79%
    14:00 +3°C° 0 mm 4 mps 723 mmHg 77%
    15:00 +2°C° 0 mm 3 mps 723 mmHg 79%
    16:00 +2°C° 0 mm 3 mps 724 mmHg 81%
    17:00 +2°C° 0 mm 3 mps 724 mmHg 83%
    18:00 +1°C° 0.1 mm 3 mps 724 mmHg 86%
    19:00 +1°C° 0.1 mm 3 mps 725 mmHg 88%
    20:00 0°C° 0.1 mm 3 mps 725 mmHg 90%
    21:00 0°C° 0 mm 3 mps 725 mmHg 91%
    22:00 0°C° 0 mm 3 mps 725 mmHg 92%
    23:00 0°C° 0 mm 3 mps 725 mmHg 92%

    27 October, Saturday

    Time Temperature Precipitation Wind Pressure Humidity
    00:00 0°C° 0 mm 3 mps 725 mmHg 93%
    01:00 -1°C° 0 mm 3 mps 725 mmHg 94%
    02:00 -1°C° 0 mm 3 mps 724 mmHg 95%
    03:00 0°C° 0.5 mm 3 mps 724 mmHg 93%
    04:00 -1°C° 0.5 mm 4 mps 723 mmHg 91%
    05:00 0°C° 0.5 mm 4 mps 722 mmHg 89%
    06:00 +1°C° 1.2 mm 5 mps 721 mmHg 89%
    07:00 +1°C° 1.2 mm 5 mps 720 mmHg 90%
    08:00 +2°C° 1.2 mm 5 mps 719 mmHg 90%
    09:00 +2°C° 1 mm 5 mps 718 mmHg 89%
    10:00 +3°C° 1 mm 5 mps 717 mmHg 89%
    11:00 +5°C° 1 mm 5 mps 716 mmHg 89%
    12:00 +5°C° 0.4 mm 5 mps 716 mmHg 85%
    13:00 +5°C° 0.4 mm 5 mps 716 mmHg 82%
    14:00 +5°C° 0.4 mm 5 mps 716 mmHg 79%
    15:00 +3°C° 0.5 mm 6 mps 716 mmHg 80%
    16:00 +2°C° 0.5 mm 6 mps 717 mmHg 82%
    17:00 0°C° 0.5 mm 7 mps 718 mmHg 83%
    18:00 0°C° 0.4 mm 7 mps 719 mmHg 83%
    19:00 -1°C° 0.4 mm 7 mps 721 mmHg 83%
    20:00 -1°C° 0.4 mm 7 mps 722 mmHg 82%
    21:00 -2°C° 0.1 mm 7 mps 723 mmHg 82%
    22:00 -2°C° 0.1 mm 6 mps 725 mmHg 82%
    23:00 -2°C° 0.1 mm 6 mps 727 mmHg 81%

    28 October, Sunday

    Time Temperature Precipitation Wind Pressure Humidity
    00:00 -2°C° 0 mm 6 mps 728 mmHg 82%
    01:00 -1°C° 0 mm 5 mps 729 mmHg 84%
    02:00 -1°C° 0 mm 5 mps 730 mmHg 85%
    03:00 -1°C° 0 mm 4 mps 731 mmHg 85%
    04:00 -1°C° 0 mm 4 mps 732 mmHg 86%
    05:00 -1°C° 0 mm 3 mps 733 mmHg 87%
    06:00 -1°C° 0 mm 3 mps 733 mmHg 87%
    07:00 -1°C° 0 mm 3 mps 734 mmHg 87%
    08:00 -2°C° 0 mm 3 mps 735 mmHg 87%
    09:00 -1°C° 0 mm 3 mps 736 mmHg 85%
    10:00 -1°C° 0 mm 3 mps 737 mmHg 82%
    11:00 0°C° 0 mm 3 mps 738 mmHg 80%
    12:00 0°C° 0 mm 3 mps 738 mmHg 80%
    13:00 0°C° 0 mm 3 mps 739 mmHg 79%
    14:00 0°C° 0 mm 3 mps 739 mmHg 79%
    15:00 -1°C° 0 mm 3 mps 740 mmHg 81%
    16:00 -1°C° 0 mm 2 mps 741 mmHg 82%
    17:00 -1°C° 0 mm 2 mps 741 mmHg 84%
    18:00 -2°C° 0 mm 2 mps 742 mmHg 86%
    19:00 0°C° 0 mm 1 mps 742 mmHg 88%
    20:00 -1°C° 0 mm 1 mps 743 mmHg 89%
    21:00 -1°C° 0 mm 1 mps 743 mmHg 91%
    22:00 -1°C° 0 mm 1 mps 743 mmHg 92%
    23:00 -1°C° 0 mm 1 mps 744 mmHg 93%

    29 October, Monday

    Time Temperature Precipitation Wind Pressure Humidity
    00:00 -1°C° 0 mm 1 mps 744 mmHg 92%
    01:00 -1°C° 0 mm 1 mps 744 mmHg 92%
    02:00 -2°C° 0 mm 0 mps 745 mmHg 92%
    03:00 -2°C° 0 mm 0 mps 745 mmHg 92%
    04:00 -2°C° 0 mm 0 mps 745 mmHg 91%
    05:00 -2°C° 0 mm 0 mps 745 mmHg 91%
    06:00 -2°C° 0 mm 0 mps 745 mmHg 90%
    07:00 -1°C° 0 mm 0 mps 745 mmHg 88%
    08:00 0°C° 0 mm 1 mps 745 mmHg 87%
    09:00 +1°C° 0 mm 1 mps 745 mmHg 84%
    10:00 +1°C° 0 mm 1 mps 745 mmHg 80%
    11:00 +2°C° 0 mm 1 mps 745 mmHg 77%
    12:00 +2°C° 0 mm 1 mps 745 mmHg 77%
    13:00 +1°C° 0 mm 2 mps 745 mmHg 78%
    14:00 +1°C° 0 mm 2 mps 745 mmHg 78%
    15:00 -1°C° 0.2 mm 2 mps 745 mmHg 82%
    16:00 -1°C° 0.2 mm 2 mps 745 mmHg 85%
    17:00 -1°C° 0.2 mm 2 mps 745 mmHg 88%
    18:00 -2°C° 0.5 mm 3 mps 745 mmHg 89%
    19:00 -2°C° 0.5 mm 3 mps 744 mmHg 90%
    20:00 -3°C° 0.5 mm 4 mps 744 mmHg 90%
    21:00 -3°C° 0.5 mm 4 mps 744 mmHg 90%
    22:00 -4°C° 0.5 mm 5 mps 744 mmHg 89%
    23:00 -4°C° 0.5 mm 5 mps 744 mmHg 89%

    30 October, Tuesday

    Time Temperature Precipitation Wind Pressure Humidity
    00:00 -4°C° 0.6 mm 5 mps 744 mmHg 88%
    01:00 -4°C° 0.6 mm 6 mps 744 mmHg 88%
    02:00 -4°C° 0.6 mm 6 mps 743 mmHg 88%
    03:00 -4°C° 0.8 mm 6 mps 743 mmHg 88%
    04:00 -4°C° 0.8 mm 6 mps 743 mmHg 88%
    05:00 -4°C° 0.8 mm 6 mps 743 mmHg 89%
    06:00 -4°C° 0.6 mm 6 mps 743 mmHg 89%
    07:00 -4°C° 0.6 mm 6 mps 743 mmHg 88%
    08:00 -4°C° 0.6 mm 6 mps 743 mmHg 88%
    09:00 -4°C° 0.5 mm 6 mps 743 mmHg 88%
    10:00 -4°C° 0.5 mm 6 mps 744 mmHg 88%
    11:00 -4°C° 0.5 mm 6 mps 744 mmHg 88%
    12:00 -4°C° 0.2 mm 6 mps 744 mmHg 87%
    13:00 -4°C° 0.2 mm 6 mps 744 mmHg 86%
    14:00 -4°C° 0.2 mm 6 mps 745 mmHg 86%
    15:00 -4°C° 0 mm 6 mps 745 mmHg 86%
    16:00 -4°C° 0 mm 6 mps 745 mmHg 86%
    17:00 -4°C° 0 mm 6 mps 746 mmHg 87%
    18:00 -4°C° 0.1 mm 6 mps 746 mmHg 87%
    19:00 -4°C° 0.1 mm 6 mps 746 mmHg 87%
    20:00 -4°C° 0.1 mm 6 mps 746 mmHg 88%
    21:00 -4°C° 0 mm 6 mps 746 mmHg 88%
    22:00 -4°C° 0 mm 5 mps 747 mmHg 88%
    23:00 -4°C° 0 mm 5 mps 747 mmHg 88%
    Show more